Location: Fernhill
(41.0167°S, 175.6333°E)
Time: 09:25:12
(UTC+00:00)

Cosmos 1315 Rocket - Pass Details

Date: 08 November 2025
Orbit: 497 x 513 km, 81.2° (Epoch: 12 December)

Event Time Altitude Azimuth Distance (km) Brightness Sun altitude
Rises 08:22:02 0° 193° (SSW) 2,633 7.1 -13.2°
Reaches altitude 10° 08:24:11 10° 195° (SSW) 1,738 6.2 -13.5°
Maximum altitude 08:27:58 66° 277° (W) 558 3.0 -14.1°
Enters shadow 08:31:20 12° 358° (N) 1,563 4.8 -14.6°
